Weather History for KRWI - December, 2012

Change the Weather History Date:

Friday, December 14, 2012

  Actual Average Record
Temperature  
Mean Temperature 42 °F -  
Max Temperature 55 °F 57 °F 75 °F (2001)
Min Temperature 28 °F 33 °F 14 °F (1960)
Degree Days  
Heating Degree Days 24    
Moisture  
Dew Point 30 °F    
Average Humidity 76    
Maximum Humidity 93    
Minimum Humidity 31    
Precipitation  
Precipitation 0.00 in - - ()
Sea Level Pressure  
Sea Level Pressure 30.31 in    
Wind  
Wind Speed 1 mph (North)    
Max Wind Speed 5 mph    
Max Gust Speed -    
Visibility 8 miles    
Events      
Averages and records for this station are not official NWS values.
T = Trace of Precipitation, MM = Missing Value Source: NWS Daily Summary

Daily Weather History Graph

Daily Weather History Graph

Search for Another Location

Airport or City:

Trip Planner

Search our weather history database for the weather conditions in past years. The results will help you decide how hot, cold, wet, or windy it might be!

Date:

Astronomy

Dec. 14, 2012 Rise Set
Actual Time 7:14 AM EST 4:58 PM EST
Civil Twilight 6:45 AM EST 5:27 PM EST
Nautical Twilight 6:13 AM EST 5:59 PM EST
Astronomical Twilight 5:42 AM EST 6:30 PM EST
Moon 8:18 AM EST (12/14) 6:47 PM EST (12/14)
Length of Visible Light 10h 41m
Length of Day
9h 44m
Waxing Crescent, 3% of the Moon is Illuminated
Dec 14
Waxing Crescent
Dec 20
First Quarter
Dec 28
Full
Jan 4
Last Quarter
Jan 11
New

Hourly Weather History & Observations

Time (EST) Temp. Windchill Dew Point Humidity Pressure Visibility Wind Dir Wind Speed Gust Speed Precip Events Conditions
12:53 AM 32.0 °F 28.7 °F 28.9 °F 88% 30.35 in 10.0 mi North 3.5 mph - N/A   Clear
1:53 AM 32.0 °F - 28.9 °F 88% 30.35 in 10.0 mi Calm Calm - N/A   Clear
2:53 AM 32.0 °F - 28.9 °F 88% 30.35 in 10.0 mi Calm Calm - N/A   Clear
3:53 AM 30.9 °F - 28.0 °F 89% 30.34 in 10.0 mi Calm Calm - N/A   Clear
4:53 AM 30.9 °F 27.5 °F 27.0 °F 85% 30.34 in 10.0 mi NW 3.5 mph - N/A   Clear
5:53 AM 30.9 °F - 27.0 °F 85% 30.35 in 10.0 mi Calm Calm - N/A   Clear
6:53 AM 30.0 °F - 27.0 °F 88% 30.36 in 8.0 mi Calm Calm - N/A   Clear
7:53 AM 28.9 °F - 27.0 °F 92% 30.38 in 5.0 mi Calm Calm - N/A   Clear
8:53 AM 37.0 °F - 33.1 °F 86% 30.38 in 10.0 mi Calm Calm - N/A   Clear
9:53 AM 44.1 °F 42.5 °F 36.0 °F 73% 30.37 in 10.0 mi NNE 3.5 mph - N/A   Clear
10:53 AM 48.0 °F - 35.1 °F 61% 30.36 in 10.0 mi North 3.5 mph - N/A   Clear
11:53 AM 51.1 °F - 33.1 °F 50% 30.34 in 10.0 mi Variable 3.5 mph - N/A   Clear
12:53 PM 53.1 °F - 30.9 °F 43% 30.32 in 10.0 mi Calm Calm - N/A   Clear
1:53 PM 55.0 °F - 27.0 °F 34% 30.28 in 10.0 mi SSW 4.6 mph - N/A   Clear
2:53 PM 55.0 °F - 25.0 °F 31% 30.27 in 10.0 mi Calm Calm - N/A   Clear
3:53 PM 55.9 °F - 26.1 °F 32% 30.26 in 10.0 mi Calm Calm - N/A   Clear
4:53 PM 46.9 °F - 34.0 °F 61% 30.26 in 10.0 mi Calm Calm - N/A   Clear
5:53 PM 39.0 °F - 33.1 °F 79% 30.26 in 10.0 mi Calm Calm - N/A   Clear
6:53 PM 37.0 °F - 32.0 °F 82% 30.26 in 10.0 mi Calm Calm - N/A   Clear
7:53 PM 34.0 °F - 30.0 °F 85% 30.26 in 10.0 mi Calm Calm - N/A   Clear
8:53 PM 33.1 °F - 30.0 °F 89% 30.28 in 10.0 mi Calm Calm - N/A   Clear
9:53 PM 30.9 °F - 28.9 °F 92% 30.28 in 10.0 mi Calm Calm - N/A   Clear
10:53 PM 30.0 °F - 28.0 °F 92% 30.29 in 8.0 mi Calm Calm - N/A   Clear
11:18 PM 30.2 °F - 28.4 °F 93% 30.27 in 1.8 mi Calm Calm - N/A   Clear
11:29 PM 30.2 °F - 28.4 °F 93% 30.27 in 0.8 mi Calm Calm - N/A   Clear
11:53 PM 30.9 °F - 28.0 °F 89% 30.27 in 1.5 mi Calm Calm - N/A   Clear
11:56 PM 30.2 °F - 28.4 °F 93% 30.26 in 4.0 mi Calm Calm - N/A   Clear